Regional Weather Roundup
Issued by NWS

Home | Current Version | Previous Version | Graphics & Text | Print | Product List | Glossary On
Versions: 1 2 3 4 5 6 7 8 9 10 11 12 13 14 15 16 17 18 19 20 21 22 23 24 25 26 27 28 29 30 31 32 33 34 35 36 37 38 39 40 41 42 43 44 45 46 47 48 49 50
000
ASUS43 KLOT 281508
RWRIL

ILLINOIS REGIONAL WEATHER ROUNDUP
NATIONAL WEATHER SERVICE CHICAGO/ROMEOVILLE IL
1000 AM CDT FRI AUG 28 2015

NOTE: "FAIR" INDICATES FEW OR NO CLOUDS BELOW 12,000 FEET WITH NO
SIGNIFICANT WEATHER AND/OR OBSTRUCTIONS TO VISIBILITY.

* THESE STATIONS ARE NOT UNDER NWS QUALITY CONTROL. THEY ALSO MAY NOT
  REPORT WEATHER SUCH AS PRECIPITATION OR FOG.

ILZ001-002-007-009-015-016-024-281600-
NORTHWEST ILLINOIS

CITY           SKY/WX    TMP DP  RH WIND       PRES   REMARKS
MOLINE         CLOUDY    65  59  81 SE3       30.10S
STERLING*      CLOUDY   N/A N/A N/A S7        30.10S
SAVANNA*       CLOUDY    65  59  81 SE5       30.11S
$$

ILZ003-004-008-010-011-017-018-281600-
NORTH CENTRAL ILLINOIS

CITY           SKY/WX    TMP DP  RH WIND       PRES   REMARKS
ROCKFORD       CLOUDY    65  59  81 S6        30.14S
FREEPORT*      CLOUDY    63  59  87 S6        30.14S
ROCHELLE*      CLOUDY    65  60  85 CALM      30.14S
DE KALB*       CLOUDY    64  60  87 SE5       30.16S
PERU*          CLOUDY    66  59  78 S5        30.14F
$$

ILZ005-006-012>014-019>023-281600-
NORTHEAST ILLINOIS

CITY           SKY/WX    TMP DP  RH WIND       PRES   REMARKS
CHICAGO-OHARE  CLOUDY    70  59  68 SW6       30.15R
CHICAGO-MIDWAY CLOUDY    71  58  63 S5        30.15R
AURORA         CLOUDY    65  60  84 S3        30.16R HAZE
LANSING*       PTSUNNY   69  60  75 SW6       30.17R
JOLIET*        CLOUDY    67  62  83 S3        30.16R
WAUKEGAN       PTSUNNY   70  60  70 SW7       30.14S
DUPAGE AIRPORT CLOUDY    66  59  78 S6        30.15R
KANKAKEE*      CLOUDY    66  62  89 CALM      30.18R
WHEELING       PTSUNNY   71  58  63 CALM      30.16R
MORRIS*        CLOUDY    65  60  85 CALM      30.14S
ROMEOVILLE*    CLOUDY    66  59  78 SW3       30.16R
NORTHERLY ISL    N/A     71  57  61 S2          N/A
$$

LMZ740>746-281600-
SOUTHERN LAKE MICHIGAN

STATION/POSITION SKY/WX   TEMP    WIND        PRES    VSBY  WAVE
                          AIR SEA DIR/SP/G                  HT/PER
                          (F)     (DEG/KT/KT) (MB)    (MI)  (FT/S)
SOUTHERN BUOY              67 68  180/  8/ 10 1020.9R
WILMETTE HARBOR            60 55  310/  4/  4   N/A           2/ 4
HARRISON CRIB              64     160/  6/  8   N/A
BURNHAM HARBOR             71     200/  5/  6   N/A
CALUMET HARBOR             67     210/  5/  7   N/A
BURNS HARBOR               67     180/  8/ 11 1021.3S
MICHIGAN CITY              65     140/  9/ 10   N/A
MICHIGAN CITY 6N           68 70  210/  6/  8   N/A           1
ST. JOSEPH                 67 71  210/  6/  6   N/A           1
$$

ILZ025>027-034>036-040-047-049-050-058-095>099-281600-
WEST-CENTRAL ILLINOIS

CITY           SKY/WX    TMP DP  RH WIND       PRES   REMARKS
QUINCY         CLOUDY    70  60  70 SE9       30.09S
GALESBURG*     CLOUDY    64  60  87 SE5       30.11F
MACOMB*        CLOUDY    64  62  91 SE5       30.13S
JACKSONVILLE*  CLOUDY    73  63  70 SE6       30.12S
PITTSFIELD*    PTSUNNY   70  62  75 SE8       30.11F
$$

ILZ028>032-037-038-041>044-048-051>054-059>061-281600-
CENTRAL ILLINOIS

CITY           SKY/WX    TMP DP  RH WIND       PRES   REMARKS
PONTIAC        CLOUDY    70  64  80 S5        30.16S
BLOOMINGTON    CLOUDY    73  63  71 S10       30.16S
DECATUR        CLOUDY    72  60  66 S8        30.16R
PEORIA         CLOUDY    70  60  70 S6        30.14S
LACON*         CLOUDY    67  60  77 S5        30.12F
LINCOLN*       CLOUDY    73  61  67 S6        30.14S
SPRINGFIELD    CLOUDY    72  62  71 S7        30.14S
TAYLORVILLE    CLOUDY    70  61  73 S7        30.14S
$$

ILZ033-039-045-046-055>057-062-063-281600-
EAST-CENTRAL ILLINOIS

CITY           SKY/WX    TMP DP  RH WIND       PRES   REMARKS
CHAMPAIGN      CLOUDY    70  61  73 S5        30.16S
RANTOUL*       CLOUDY    69  63  79 S3        30.17R
MATTOON        PTSUNNY   70  59  68 S7        30.16S
PARIS*         PTSUNNY   71  60  68 S5        30.18R
$$

ILZ079-100>102-281600-
SOUTHWEST ILLINOIS

CITY           SKY/WX    TMP DP  RH WIND       PRES   REMARKS
ALTON          SUNNY     70  63  78 SE6       30.13S
BELLEVILLE     MOSUNNY   71  65  80 SE5       30.12S
CAHOKIA*       MOSUNNY   73  61  65 SE7       30.12S
SPARTA*        SUNNY     70  62  77 SE6       30.14S
$$

ILZ064>066-069>071-074>076-080>082-084>086-088>090-092>094-281600-
SOUTH-CENTRAL ILLINOIS

CITY           SKY/WX    TMP DP  RH WIND       PRES   REMARKS
CARBONDALE     SUNNY     70  62  76 SE5       30.13S
CAIRO*         SUNNY     73  65  75 CALM      30.13R
EFFINGHAM*     PTSUNNY   72  59  63 SE3       30.18R
MARION         MOSUNNY   73  63  68 SE5       30.15R
MT. VERNON     MOSUNNY   72  59  64 S3        30.16R
CENTRALIA*     MOSUNNY   71  61  70 SE5       30.14S
SALEM*         PTSUNNY   72  60  67 SE5       30.15S
METROPOLIS*    SUNNY     73  65  76 CALM      30.14R
$$

ILZ067-068-072-073-078-083-087-091-281600-
SOUTHEAST ILLINOIS

CITY           SKY/WX    TMP DP  RH WIND       PRES   REMARKS
LAWRENCEVILLE  MOSUNNY   72  58  61 E3        30.16S
FLORA*         MOSUNNY   71  59  66 SE5       30.16S
FAIRFIELD*     MOSUNNY   72  61  68 S3        30.15R
HARRISBURG*    SUNNY     73  63  71 SE5       30.14S
ROBINSON*      PTSUNNY   72  60  65 CALM      30.18R
CARMI*         MOSUNNY   72  61  68 CALM      30.14S
$$

ABBREVIATIONS USED IN REMARKS
   TC - TEMPERATURE IN CELSIUS
  WCI - WIND CHILL INDEX
   HX - HEAT INDEX
  VSB - VISIBILITY
$$



USA.gov is the U.S. government's official web portal to all federal, state and local government web resources and services.